| time (UTC) | temp F | wind direction | speed knots | gust knots | rain 1hr in | rain 24hr in | rain mn in | humidity % | barometer mb |
| 20260505223822 | 52 | 61 | 4.3 | 9.6 | 0.00 | 0.00 | 0.00 | 81 | 1009.6 |
| 20260505223317 | 52 | 6 | 3.5 | 8.7 | 0.00 | 0.00 | 0.00 | 81 | 1009.6 |
| 20260505222818 | 52 | 53 | 3.5 | 8.7 | 0.00 | 0.00 | 0.00 | 81 | 1009.6 |
| 20260505222324 | 52 | 84 | 5.2 | 9.6 | 0.00 | 0.00 | 0.00 | 81 | 1009.6 |
| 20260505221826 | 52 | 13 | 5.2 | 9.6 | 0.00 | 0.00 | 0.00 | 81 | 1009.7 |
| 20260505221320 | 52 | 33 | 3.5 | 9.6 | 0.00 | 0.00 | 0.00 | 81 | 1009.7 |
| 20260505220814 | 52 | 356 | 6.1 | 9.6 | 0.00 | 0.00 | 0.00 | 81 | 1009.7 |
| 20260505220335 | 52 | 333 | 3.5 | 8.7 | 0.00 | 0.00 | 0.00 | 81 | 1009.7 |
| 20260505215818 | 52 | 25 | 4.3 | 9.6 | 0.00 | 0.00 | 0.00 | 81 | 1009.7 |
| 20260505215332 | 52 | 33 | 3.5 | 9.6 | 0.00 | 0.00 | 0.00 | 81 | 1009.7 |
| 20260505214824 | 52 | 40 | 6.1 | 11.3 | 0.00 | 0.00 | 0.00 | 81 | 1009.7 |
| 20260505214328 | 52 | 25 | 4.3 | 11.3 | 0.00 | 0.00 | 0.00 | 81 | 1009.7 |
| 20260505213856 | 52 | 34 | 6.1 | 11.3 | 0.00 | 0.00 | 0.00 | 81 | 1009.8 |
| 20260505213327 | 53 | 76 | 2.6 | 11.3 | 0.00 | 0.00 | 0.00 | 81 | 1009.7 |
| 20260505212849 | 53 | 30 | 5.2 | 11.3 | 0.00 | 0.00 | 0.00 | 81 | 1009.8 |
| 20260505212314 | 53 | 360 | 6.1 | 10.4 | 0.00 | 0.00 | 0.00 | 80 | 1009.8 |
| 20260505211815 | 53 | 275 | 4.3 | 12.2 | 0.00 | 0.00 | 0.00 | 80 | 1009.7 |
| 20260505211329 | 53 | 25 | 5.2 | 13.0 | 0.00 | 0.00 | 0.00 | 80 | 1009.8 |
| 20260505210821 | 53 | 51 | 3.5 | 13.0 | 0.00 | 0.00 | 0.00 | 80 | 1009.8 |
| 20260505210314 | 53 | 99 | 4.3 | 10.4 | 0.00 | 0.00 | 0.00 | 80 | 1009.7 |
| 20260505205824 | 53 | 30 | 4.3 | 11.3 | 0.00 | 0.00 | 0.00 | 80 | 1009.8 |
| 20260505205334 | 53 | 53 | 6.1 | 12.2 | 0.00 | 0.00 | 0.00 | 79 | 1009.8 |
| 20260505204851 | 54 | 84 | 6.1 | 12.2 | 0.00 | 0.00 | 0.00 | 79 | 1009.8 |
| 20260505204324 | 54 | 352 | 6.1 | 13.9 | 0.00 | 0.00 | 0.00 | 79 | 1009.8 |
| 20260505203816 | 54 | 72 | 4.3 | 13.9 | 0.00 | 0.00 | 0.00 | 79 | 1009.8 |
| 20260505203357 | 54 | 42 | 5.2 | 13.0 | 0.00 | 0.00 | 0.00 | 79 | 1009.7 |
| 20260505202826 | 54 | 53 | 4.3 | 13.9 | 0.00 | 0.00 | 0.00 | 79 | 1009.7 |
| 20260505202320 | 54 | 40 | 6.1 | 13.9 | 0.00 | 0.00 | 0.00 | 79 | 1009.7 |
| 20260505201841 | 54 | 35 | 6.1 | 15.6 | 0.00 | 0.00 | 0.00 | 78 | 1009.7 |
| 20260505200820 | 55 | 290 | 6.1 | 13.9 | 0.00 | 0.00 | 0.00 | 79 | 1009.5 |
| 20260505200313 | 55 | 360 | 4.3 | 11.3 | 0.00 | 0.00 | 0.00 | 80 | 1009.5 |
| 20260505195826 | 55 | 8 | 5.2 | 11.3 | 0.00 | 0.00 | 0.00 | 80 | 1009.5 |
| 20260505195314 | 55 | 339 | 1.7 | 7.0 | 0.00 | 0.00 | 0.00 | 80 | 1009.5 |
| 20260505194814 | 55 | 358 | 2.6 | 7.0 | 0.00 | 0.00 | 0.00 | 80 | 1009.5 |
| 20260505194358 | 55 | 309 | 3.5 | 7.0 | 0.00 | 0.00 | 0.00 | 80 | 1009.5 |
| 20260505193824 | 55 | 25 | 4.3 | 7.0 | 0.00 | 0.00 | 0.00 | 80 | 1009.4 |
| 20260505193324 | 55 | 67 | 3.5 | 7.0 | 0.00 | 0.00 | 0.00 | 80 | 1009.3 |
| 20260505192819 | 55 | 27 | 3.5 | 8.7 | 0.00 | 0.00 | 0.00 | 80 | 1009.3 |
| 20260505192332 | 55 | 30 | 2.6 | 10.4 | 0.00 | 0.00 | 0.00 | 80 | 1009.2 |
| 20260505191827 | 56 | 68 | 4.3 | 10.4 | 0.00 | 0.00 | 0.00 | 79 | 1009.1 |
| 20260505191349 | 56 | 6 | 3.5 | 8.7 | 0.00 | 0.00 | 0.00 | 80 | 1009.1 |
| 20260505190841 | 56 | 300 | 5.2 | 9.6 | 0.00 | 0.00 | 0.00 | 79 | 1009.0 |
| 20260505190313 | 56 | 341 | 3.5 | 9.6 | 0.00 | 0.00 | 0.00 | 80 | 1009.0 |
| 20260505185823 | 56 | 40 | 3.5 | 8.7 | 0.00 | 0.00 | 0.00 | 80 | 1009.0 |
| 20260505185315 | 56 | 34 | 3.5 | 8.7 | 0.00 | 0.00 | 0.00 | 80 | 1009.0 |
| 20260505184827 | 56 | 1 | 2.6 | 8.7 | 0.00 | 0.00 | 0.00 | 80 | 1009.0 |
| 20260505184329 | 56 | 34 | 4.3 | 11.3 | 0.00 | 0.00 | 0.00 | 79 | 1008.9 |
| 20260505183816 | 56 | 3 | 3.5 | 10.4 | 0.00 | 0.00 | 0.00 | 80 | 1008.9 |
| 20260505183338 | 56 | 48 | 6.1 | 10.4 | 0.00 | 0.00 | 0.00 | 80 | 1008.9 |
| 20260505182829 | 57 | 66 | 3.5 | 9.6 | 0.00 | 0.00 | 0.00 | 81 | 1008.9 |
| 20260505182322 | 57 | 69 | 3.5 | 9.6 | 0.00 | 0.00 | 0.00 | 81 | 1008.9 |
| 20260505181817 | 57 | 269 | 4.3 | 7.8 | 0.00 | 0.00 | 0.00 | 81 | 1008.9 |
| 20260505181320 | 57 | 6 | 3.5 | 7.8 | 0.00 | 0.00 | 0.00 | 81 | 1008.9 |
| 20260505180827 | 57 | 325 | 2.6 | 8.7 | 0.00 | 0.00 | 0.00 | 81 | 1008.9 |
| 20260505180349 | 57 | 356 | 4.3 | 8.7 | 0.00 | 0.00 | 0.00 | 81 | 1008.9 |
| 20260505175820 | 57 | 115 | 0.9 | 2.6 | 0.00 | 0.00 | 0.00 | 82 | 1008.9 |
| 20260505175324 | 57 | 61 | 0.0 | 0.9 | 0.00 | 0.00 | 0.00 | 83 | 1008.9 |
| 20260505174844 | 57 | 61 | 0.0 | 0.9 | 0.00 | 0.00 | 0.00 | 83 | 1008.9 |
| 20260505174319 | 57 | 61 | 0.0 | 0.9 | 0.00 | 0.00 | 0.00 | 82 | 1008.9 |
| 20260505173815 | 57 | 13 | 0.0 | 5.2 | 0.00 | 0.00 | 0.00 | 82 | 1008.9 |
| 20260505173336 | 57 | 13 | 0.9 | 5.2 | 0.00 | 0.00 | 0.00 | 81 | 1008.8 |
| 20260505172829 | 57 | 19 | 1.7 | 7.0 | 0.00 | 0.00 | 0.00 | 80 | 1008.8 |
| 20260505172316 | 57 | 49 | 2.6 | 7.0 | 0.00 | 0.00 | 0.00 | 81 | 1008.8 |
| 20260505171814 | 57 | 39 | 2.6 | 6.1 | 0.00 | 0.00 | 0.00 | 81 | 1008.9 |
| 20260505171335 | 57 | 33 | 2.6 | 7.0 | 0.00 | 0.00 | 0.00 | 81 | 1008.9 |
| 20260505170820 | 57 | 8 | 2.6 | 7.0 | 0.00 | 0.00 | 0.00 | 81 | 1008.9 |
| 20260505170313 | 57 | 1 | 2.6 | 7.8 | 0.00 | 0.00 | 0.00 | 81 | 1008.8 |
| 20260505165823 | 57 | 41 | 3.5 | 7.0 | 0.00 | 0.00 | 0.00 | 81 | 1008.9 |
| 20260505165318 | 57 | 30 | 3.5 | 7.0 | 0.00 | 0.00 | 0.00 | 80 | 1008.9 |
| 20260505164813 | 57 | 67 | 2.6 | 7.0 | 0.00 | 0.00 | 0.00 | 81 | 1009.0 |
| 20260505164335 | 57 | 30 | 3.5 | 7.8 | 0.00 | 0.00 | 0.00 | 81 | 1009.0 |
| 20260505163819 | 57 | 330 | 2.6 | 7.8 | 0.00 | 0.00 | 0.00 | 81 | 1009.1 |
| 20260505163321 | 57 | 34 | 2.6 | 8.7 | 0.00 | 0.00 | 0.00 | 81 | 1009.1 |
| 20260505162817 | 57 | 61 | 1.7 | 9.6 | 0.00 | 0.00 | 0.00 | 81 | 1009.0 |
| 20260505162333 | 57 | 27 | 4.3 | 9.6 | 0.00 | 0.00 | 0.00 | 81 | 1009.1 |
| 20260505161825 | 57 | 319 | 3.5 | 6.1 | 0.00 | 0.00 | 0.00 | 81 | 1009.1 |
| 20260505161327 | 57 | 330 | 4.3 | 7.8 | 0.00 | 0.00 | 0.00 | 81 | 1009.2 |
| 20260505160842 | 57 | 64 | 4.3 | 7.8 | 0.00 | 0.00 | 0.00 | 81 | 1009.2 |
| 20260505160315 | 57 | 37 | 2.6 | 7.8 | 0.00 | 0.00 | 0.00 | 82 | 1009.2 |
| 20260505153322 | 56 | 69 | 4.3 | 7.0 | 0.00 | 0.00 | 0.00 | 83 | 1009.4 |
| 20260505152815 | 56 | 30 | 1.7 | 7.0 | 0.00 | 0.00 | 0.00 | 84 | 1009.4 |
| 20260505152326 | 56 | 21 | 2.6 | 7.0 | 0.00 | 0.00 | 0.00 | 84 | 1009.5 |
| 20260505151843 | 55 | 67 | 3.5 | 7.0 | 0.00 | 0.00 | 0.00 | 84 | 1009.5 |
| 20260505151317 | 55 | 64 | 0.9 | 6.1 | 0.00 | 0.00 | 0.00 | 84 | 1009.6 |
| 20260505150811 | 56 | 51 | 3.5 | 6.1 | 0.00 | 0.00 | 0.00 | 84 | 1009.6 |
| 20260505150355 | 56 | 21 | 3.5 | 7.0 | 0.00 | 0.00 | 0.00 | 84 | 1009.6 |
| 20260505140317 | 55 | 27 | 2.6 | 5.2 | 0.00 | 0.00 | 0.00 | 84 | 1010.0 |
| 20260505124816 | 55 | 353 | 1.7 | 5.2 | 0.00 | 0.00 | 0.00 | 85 | 1010.3 |
| 20260505124337 | 55 | 13 | 3.5 | 5.2 | 0.00 | 0.00 | 0.00 | 85 | 1010.3 |
| 20260505123822 | 55 | 356 | 2.6 | 6.1 | 0.00 | 0.00 | 0.00 | 85 | 1010.3 |
| 20260505123338 | 55 | 30 | 1.7 | 6.1 | 0.00 | 0.00 | 0.00 | 86 | 1010.3 |
| 20260505122813 | 54 | 360 | 3.5 | 7.8 | 0.00 | 0.00 | 0.00 | 86 | 1010.3 |
| 20260505122328 | 54 | 100 | 5.2 | 7.8 | 0.00 | 0.00 | 0.00 | 86 | 1010.4 |
| 20260505121848 | 54 | 37 | 3.5 | 9.6 | 0.00 | 0.00 | 0.00 | 86 | 1010.4 |
| 20260505121321 | 54 | 21 | 4.3 | 9.6 | 0.00 | 0.00 | 0.00 | 86 | 1010.4 |
| 20260505120835 | 54 | 33 | 4.3 | 9.6 | 0.00 | 0.00 | 0.00 | 86 | 1010.5 |
| 20260505120334 | 54 | 121 | 4.3 | 10.4 | 0.00 | 0.00 | 0.00 | 86 | 1010.5 |
| 20260505115819 | 54 | 79 | 6.1 | 9.6 | 0.00 | 0.00 | 0.00 | 86 | 1010.5 |
| 20260505115313 | 54 | 360 | 2.6 | 8.7 | 0.00 | 0.00 | 0.00 | 86 | 1010.5 |
| 20260505114823 | 53 | 21 | 4.3 | 8.7 | 0.00 | 0.00 | 0.00 | 86 | 1010.5 |
| 20260505114324 | 53 | 15 | 3.5 | 8.7 | 0.00 | 0.00 | 0.00 | 86 | 1010.6 |
| 20260505113827 | 53 | 55 | 3.5 | 10.4 | 0.00 | 0.00 | 0.00 | 87 | 1010.6 |
| 20260505113314 | 53 | 30 | 4.3 | 10.4 | 0.00 | 0.00 | 0.00 | 87 | 1010.7 |
| 20260505112822 | 53 | 75 | 4.3 | 7.8 | 0.00 | 0.00 | 0.00 | 87 | 1010.7 |
| 20260505112318 | 53 | 335 | 4.3 | 7.8 | 0.00 | 0.00 | 0.00 | 87 | 1010.7 |
| 20260505111841 | 53 | 44 | 3.5 | 7.8 | 0.00 | 0.00 | 0.00 | 87 | 1010.7 |
| 20260505111315 | 53 | 37 | 4.3 | 8.7 | 0.00 | 0.00 | 0.00 | 87 | 1010.7 |
| 20260505110828 | 53 | 360 | 4.3 | 8.7 | 0.00 | 0.00 | 0.00 | 87 | 1010.7 |
| 20260505110320 | 53 | 347 | 4.3 | 9.6 | 0.00 | 0.00 | 0.00 | 87 | 1010.7 |
| 20260505101815 | 53 | 32 | 4.3 | 11.3 | 0.00 | 0.00 | 0.00 | 87 | 1010.8 |
| 20260505101311 | 53 | 45 | 5.2 | 11.3 | 0.00 | 0.00 | 0.00 | 87 | 1010.8 |
| 20260505100824 | 53 | 328 | 5.2 | 10.4 | 0.00 | 0.00 | 0.00 | 88 | 1010.8 |
| 20260505100319 | 53 | 347 | 4.3 | 10.4 | 0.00 | 0.00 | 0.00 | 88 | 1010.9 |
| 20260505095830 | 52 | 21 | 5.2 | 11.3 | 0.00 | 0.00 | 0.00 | 89 | 1010.8 |
| 20260505095325 | 52 | 341 | 6.1 | 11.3 | 0.00 | 0.00 | 0.00 | 89 | 1010.8 |
| 20260505094817 | 52 | 8 | 5.2 | 7.8 | 0.00 | 0.00 | 0.00 | 89 | 1010.8 |
| 20260505094314 | 52 | 353 | 4.3 | 8.7 | 0.00 | 0.00 | 0.00 | 89 | 1010.8 |
| 20260505093846 | 52 | 3 | 4.3 | 9.6 | 0.00 | 0.00 | 0.00 | 89 | 1010.8 |
| 20260505093327 | 52 | 358 | 2.6 | 9.6 | 0.00 | 0.00 | 0.00 | 89 | 1010.8 |
| 20260505092819 | 52 | 53 | 4.3 | 9.6 | 0.00 | 0.00 | 0.00 | 89 | 1010.9 |
| 20260505092315 | 52 | 11 | 5.2 | 9.6 | 0.00 | 0.00 | 0.00 | 90 | 1010.9 |
| 20260505091837 | 52 | 49 | 2.6 | 8.7 | 0.00 | 0.00 | 0.00 | 90 | 1010.9 |
| 20260505091330 | 52 | 39 | 2.6 | 10.4 | 0.00 | 0.00 | 0.00 | 90 | 1011.0 |
| 20260505090816 | 52 | 27 | 6.1 | 11.3 | 0.00 | 0.00 | 0.00 | 90 | 1011.1 |
| 20260505090318 | 52 | 67 | 2.6 | 8.7 | 0.00 | 0.00 | 0.00 | 89 | 1011.1 |
| 20260505085844 | 52 | 31 | 3.5 | 8.7 | 0.00 | 0.00 | 0.00 | 89 | 1011.1 |
| 20260505085337 | 52 | 72 | 2.6 | 10.4 | 0.00 | 0.00 | 0.00 | 89 | 1011.1 |
| 20260505084829 | 52 | 314 | 5.2 | 10.4 | 0.00 | 0.00 | 0.00 | 89 | 1011.1 |
| 20260505084321 | 52 | 52 | 4.3 | 8.7 | 0.00 | 0.00 | 0.00 | 90 | 1011.1 |
| 20260505083816 | 52 | 357 | 3.5 | 7.8 | 0.00 | 0.00 | 0.00 | 90 | 1011.0 |
| 20260505083334 | 52 | 335 | 3.5 | 9.6 | 0.00 | 0.00 | 0.00 | 90 | 1011.0 |
| 20260505082826 | 52 | 63 | 3.5 | 9.6 | 0.00 | 0.00 | 0.00 | 90 | 1011.0 |
| 20260505082338 | 52 | 332 | 2.6 | 10.4 | 0.00 | 0.00 | 0.00 | 90 | 1011.0 |
| 20260505081820 | 52 | 6 | 5.2 | 10.4 | 0.00 | 0.00 | 0.00 | 90 | 1011.0 |
| 20260505081359 | 52 | 67 | 2.6 | 9.6 | 0.00 | 0.00 | 0.00 | 90 | 1011.0 |
| 20260505080825 | 52 | 82 | 3.5 | 6.1 | 0.00 | 0.00 | 0.00 | 90 | 1011.0 |
| 20260505080324 | 52 | 323 | 1.7 | 7.8 | 0.00 | 0.00 | 0.00 | 90 | 1011.0 |
| 20260505075826 | 52 | 30 | 3.5 | 7.8 | 0.00 | 0.00 | 0.00 | 90 | 1011.0 |
| 20260505075321 | 52 | 357 | 2.6 | 7.0 | 0.00 | 0.00 | 0.00 | 90 | 1011.1 |
| 20260505074816 | 52 | 30 | 2.6 | 7.8 | 0.00 | 0.00 | 0.00 | 90 | 1011.1 |
| 20260505074318 | 52 | 302 | 2.6 | 8.7 | 0.00 | 0.00 | 0.00 | 90 | 1011.2 |
| 20260505073825 | 52 | 25 | 6.1 | 8.7 | 0.00 | 0.00 | 0.00 | 90 | 1011.1 |
| 20260505073327 | 52 | 15 | 1.7 | 4.3 | 0.00 | 0.00 | 0.00 | 90 | 1011.1 |
| 20260505072822 | 52 | 21 | 1.7 | 8.7 | 0.00 | 0.00 | 0.00 | 90 | 1011.1 |
| 20260505072317 | 52 | 360 | 3.5 | 6.1 | 0.00 | 0.00 | 0.00 | 90 | 1011.1 |
| 20260505071813 | 52 | 49 | 1.7 | 6.1 | 0.00 | 0.00 | 0.00 | 90 | 1011.0 |
| 20260505071317 | 52 | 30 | 3.5 | 8.7 | 0.00 | 0.00 | 0.00 | 90 | 1011.0 |
| 20260505070821 | 51 | 349 | 1.7 | 8.7 | 0.00 | 0.00 | 0.00 | 90 | 1010.9 |
| 20260505070323 | 51 | 46 | 3.5 | 11.3 | 0.00 | 0.00 | 0.00 | 90 | 1010.9 |
| 20260505065853 | 51 | 77 | 5.2 | 11.3 | 0.00 | 0.00 | 0.00 | 90 | 1011.0 |
| 20260505065320 | 51 | 51 | 4.3 | 9.6 | 0.00 | 0.00 | 0.00 | 90 | 1011.0 |
| 20260505064822 | 51 | 341 | 3.5 | 9.6 | 0.00 | 0.00 | 0.00 | 90 | 1011.0 |
| 20260505064337 | 51 | 351 | 2.6 | 8.7 | 0.00 | 0.00 | 0.00 | 90 | 1011.1 |
| 20260505063829 | 51 | 314 | 5.2 | 9.6 | 0.00 | 0.00 | 0.00 | 90 | 1011.1 |
| 20260505063333 | 52 | 342 | 3.5 | 7.0 | 0.00 | 0.00 | 0.00 | 90 | 1011.2 |
| 20260505062826 | 52 | 351 | 2.6 | 8.7 | 0.00 | 0.00 | 0.00 | 90 | 1011.2 |
| 20260505062340 | 52 | 339 | 5.2 | 8.7 | 0.00 | 0.00 | 0.00 | 89 | 1011.3 |
| 20260505061815 | 52 | 330 | 0.9 | 7.0 | 0.00 | 0.00 | 0.00 | 89 | 1011.3 |
| 20260505061317 | 52 | 344 | 3.5 | 7.0 | 0.00 | 0.00 | 0.00 | 89 | 1011.3 |
| 20260505060848 | 52 | 55 | 3.5 | 7.8 | 0.00 | 0.00 | 0.00 | 89 | 1011.3 |
| 20260505060321 | 52 | 335 | 1.7 | 7.0 | 0.00 | 0.00 | 0.00 | 89 | 1011.3 |
| 20260505055834 | 52 | 333 | 2.6 | 7.0 | 0.00 | 0.00 | 0.00 | 89 | 1011.3 |
| 20260505055322 | 52 | 3 | 5.2 | 7.0 | 0.00 | 0.00 | 0.00 | 89 | 1011.3 |
| 20260505054823 | 52 | 335 | 2.6 | 8.7 | 0.00 | 0.00 | 0.00 | 89 | 1011.3 |
| 20260505054318 | 52 | 330 | 4.3 | 8.7 | 0.00 | 0.00 | 0.00 | 89 | 1011.2 |
| 20260505053834 | 52 | 22 | 3.5 | 10.4 | 0.00 | 0.00 | 0.00 | 89 | 1011.2 |
| 20260505053356 | 52 | 333 | 4.3 | 10.4 | 0.00 | 0.00 | 0.00 | 89 | 1011.1 |
| 20260505052829 | 52 | 11 | 3.5 | 9.6 | 0.00 | 0.00 | 0.00 | 89 | 1011.1 |
| 20260505052317 | 52 | 30 | 5.2 | 10.4 | 0.00 | 0.00 | 0.00 | 89 | 1011.1 |
| 20260505051820 | 52 | 335 | 1.7 | 7.0 | 0.00 | 0.00 | 0.00 | 89 | 1011.2 |
| 20260505051342 | 52 | 335 | 4.3 | 7.8 | 0.00 | 0.00 | 0.00 | 89 | 1011.1 |
| 20260505050834 | 52 | 359 | 1.7 | 7.8 | 0.00 | 0.00 | 0.00 | 89 | 1011.1 |
| 20260505050347 | 52 | 5 | 1.7 | 7.0 | 0.00 | 0.00 | 0.00 | 89 | 1011.2 |
| 20260505041319 | 53 | 37 | 3.5 | 6.1 | 0.00 | 0.00 | 0.00 | 89 | 1011.1 |
| 20260505040835 | 53 | 21 | 3.5 | 6.1 | 0.00 | 0.00 | 0.00 | 89 | 1011.0 |
| 20260505040345 | 53 | 319 | 1.7 | 6.1 | 0.00 | 0.00 | 0.00 | 89 | 1011.1 |
| 20260505035816 | 53 | 54 | 2.6 | 7.8 | 0.00 | 0.00 | 0.00 | 89 | 1011.1 |
| 20260505035331 | 53 | 354 | 1.7 | 9.6 | 0.00 | 0.00 | 0.00 | 89 | 1011.1 |
| 20260505034823 | 53 | 316 | 3.5 | 7.8 | 0.00 | 0.00 | 0.00 | 89 | 1011.1 |
| 20260505034317 | 53 | 49 | 2.6 | 8.7 | 0.00 | 0.00 | 0.00 | 89 | 1011.2 |
| 20260505033832 | 53 | 319 | 4.3 | 8.7 | 0.00 | 0.00 | 0.00 | 89 | 1011.2 |
| 20260505033326 | 53 | 51 | 4.3 | 9.6 | 0.00 | 0.00 | 0.00 | 89 | 1011.2 |
| 20260505032827 | 53 | 25 | 2.6 | 8.7 | 0.00 | 0.00 | 0.00 | 89 | 1011.3 |
| 20260505032313 | 53 | 325 | 3.5 | 8.7 | 0.00 | 0.00 | 0.00 | 89 | 1011.3 |
| 20260505031835 | 53 | 8 | 2.6 | 8.7 | 0.00 | 0.00 | 0.00 | 89 | 1011.3 |
| 20260505031315 | 53 | 332 | 3.5 | 7.8 | 0.00 | 0.00 | 0.00 | 88 | 1011.2 |
| 20260505030823 | 53 | 328 | 3.5 | 8.7 | 0.00 | 0.00 | 0.00 | 88 | 1011.3 |
| 20260505030324 | 53 | 359 | 2.6 | 8.7 | 0.00 | 0.00 | 0.00 | 88 | 1011.3 |
| 20260505025839 | 54 | 5 | 6.1 | 8.7 | 0.00 | 0.00 | 0.00 | 88 | 1011.3 |
| 20260505025345 | 54 | 55 | 2.6 | 12.2 | 0.00 | 0.00 | 0.00 | 88 | 1011.3 |
| 20260505024827 | 54 | 328 | 4.3 | 7.8 | 0.00 | 0.00 | 0.00 | 88 | 1011.3 |
| 20260505024342 | 54 | 25 | 4.3 | 9.6 | 0.00 | 0.00 | 0.00 | 88 | 1011.4 |
| 20260505023814 | 54 | 27 | 4.3 | 9.6 | 0.00 | 0.00 | 0.00 | 88 | 1011.4 |
| 20260505023337 | 54 | 221 | 4.3 | 10.4 | 0.00 | 0.00 | 0.00 | 88 | 1011.3 |
| 20260505022830 | 54 | 359 | 5.2 | 10.4 | 0.00 | 0.00 | 0.00 | 89 | 1011.4 |
| 20260505022318 | 54 | 30 | 5.2 | 11.3 | 0.00 | 0.00 | 0.00 | 89 | 1011.4 |
| 20260505021819 | 54 | 19 | 3.5 | 7.8 | 0.00 | 0.00 | 0.00 | 89 | 1011.4 |
| 20260505021340 | 54 | 333 | 3.5 | 8.7 | 0.00 | 0.00 | 0.00 | 89 | 1011.4 |
| 20260505020817 | 54 | 4 | 4.3 | 10.4 | 0.00 | 0.00 | 0.00 | 89 | 1011.4 |
| 20260505020320 | 54 | 25 | 2.6 | 10.4 | 0.00 | 0.00 | 0.00 | 90 | 1011.4 |
| 20260505015816 | 54 | 67 | 3.5 | 8.7 | 0.00 | 0.00 | 0.00 | 90 | 1011.4 |
| 20260505015330 | 54 | 91 | 4.3 | 8.7 | 0.00 | 0.00 | 0.00 | 90 | 1011.4 |
| 20260505014849 | 54 | 34 | 4.3 | 13.0 | 0.00 | 0.00 | 0.00 | 90 | 1011.3 |
| 20260505014323 | 54 | 283 | 4.3 | 9.6 | 0.00 | 0.00 | 0.00 | 90 | 1011.3 |
| 20260505013813 | 54 | 13 | 4.3 | 10.4 | 0.00 | 0.00 | 0.00 | 90 | 1011.4 |
| 20260505013323 | 54 | 13 | 4.3 | 8.7 | 0.00 | 0.00 | 0.00 | 90 | 1011.3 |
| 20260505012820 | 54 | 87 | 3.5 | 7.8 | 0.00 | 0.00 | 0.00 | 90 | 1011.3 |
| 20260505012334 | 54 | 16 | 1.7 | 7.8 | 0.00 | 0.00 | 0.00 | 90 | 1011.4 |
| 20260505011825 | 54 | 27 | 2.6 | 10.4 | 0.00 | 0.00 | 0.00 | 90 | 1011.4 |
| 20260505011329 | 54 | 351 | 5.2 | 10.4 | 0.00 | 0.00 | 0.00 | 89 | 1011.4 |
| 20260505010830 | 54 | 39 | 3.5 | 9.6 | 0.00 | 0.00 | 0.00 | 89 | 1011.4 |
| 20260505010331 | 54 | 22 | 5.2 | 9.6 | 0.00 | 0.00 | 0.00 | 89 | 1011.6 |
| 20260505005836 | 55 | 25 | 4.3 | 9.6 | 0.00 | 0.00 | 0.00 | 89 | 1011.7 |
| 20260505005318 | 55 | 41 | 3.5 | 12.2 | 0.00 | 0.00 | 0.00 | 89 | 1011.6 |
| 20260505004837 | 55 | 340 | 5.2 | 12.2 | 0.00 | 0.00 | 0.00 | 88 | 1011.6 |
| 20260505004332 | 55 | 349 | 4.3 | 9.6 | 0.00 | 0.00 | 0.00 | 88 | 1011.7 |
| 20260505003844 | 55 | 335 | 5.2 | 9.6 | 0.00 | 0.00 | 0.00 | 88 | 1011.7 |
| 20260505003318 | 56 | 22 | 4.3 | 8.7 | 0.00 | 0.00 | 0.00 | 88 | 1011.7 |
| 20260505002833 | 56 | 319 | 4.3 | 8.7 | 0.00 | 0.00 | 0.00 | 88 | 1011.7 |
| 20260505002346 | 56 | 19 | 3.5 | 9.6 | 0.00 | 0.00 | 0.00 | 88 | 1011.7 |
| 20260505001846 | 56 | 330 | 4.3 | 9.6 | 0.00 | 0.00 | 0.00 | 88 | 1011.7 |
| 20260505001319 | 56 | 358 | 3.5 | 8.7 | 0.00 | 0.00 | 0.00 | 88 | 1011.7 |
| 20260505000825 | 56 | 27 | 2.6 | 8.7 | 0.00 | 0.00 | 0.00 | 88 | 1011.7 |
| 20260505000320 | 56 | 321 | 2.6 | 10.4 | 0.00 | 0.00 | 0.00 | 88 | 1011.8 |
| 20260504235825 | 56 | 333 | 3.5 | 7.8 | 0.00 | 0.00 | 0.00 | 88 | 1011.8 |
| 20260504235338 | 56 | 25 | 4.3 | 8.7 | 0.00 | 0.00 | 0.00 | 88 | 1011.8 |
| 20260504234854 | 57 | 335 | 2.6 | 8.7 | 0.00 | 0.00 | 0.00 | 87 | 1011.9 |
| 20260504234327 | 57 | 35 | 2.6 | 11.3 | 0.00 | 0.00 | 0.00 | 87 | 1012.0 |
| 20260504233816 | 57 | 359 | 7.0 | 11.3 | 0.00 | 0.00 | 0.00 | 87 | 1012.0 |
| 20260504233318 | 57 | 42 | 3.5 | 8.7 | 0.00 | 0.00 | 0.00 | 87 | 1012.0 |
| 20260504232814 | 57 | 7 | 4.3 | 8.7 | 0.00 | 0.00 | 0.00 | 87 | 1012.0 |
| 20260504232325 | 57 | 354 | 3.5 | 7.8 | 0.00 | 0.00 | 0.00 | 87 | 1012.0 |
| 20260504231819 | 57 | 341 | 3.5 | 9.6 | 0.00 | 0.00 | 0.00 | 87 | 1012.1 |
| 20260504231322 | 57 | 354 | 3.5 | 8.7 | 0.00 | 0.00 | 0.00 | 87 | 1012.1 |
| 20260504230837 | 57 | 314 | 1.7 | 6.1 | 0.00 | 0.00 | 0.00 | 87 | 1012.2 |
| 20260504230312 | 58 | 44 | 2.6 | 6.1 | 0.00 | 0.00 | 0.00 | 87 | 1012.1 |
| 20260504225820 | 58 | 314 | 2.6 | 6.1 | 0.00 | 0.00 | 0.00 | 87 | 1012.1 |
| 20260504225335 | 58 | 330 | 3.5 | 6.1 | 0.00 | 0.00 | 0.00 | 87 | 1012.1 |
| 20260504224816 | 58 | 40 | 3.5 | 7.0 | 0.00 | 0.00 | 0.00 | 87 | 1012.1 |
| 20260504224358 | 58 | 58 | 3.5 | 7.8 | 0.00 | 0.00 | 0.00 | 87 | 1012.1 |